K5TCS Weather Reports


Display with metric or nautical units.
time (UTC)temp
F
wind
direction
speed
MPH
gust
MPH
rain 1hr
in
rain 24hr
in
rain mn
in
humidity
%
barometer
mb
20260506062016 52 203 3.0 10.0 0.00 0.00 0.00 44 1017.7
20260506061016 52 203 4.0 7.0 0.00 0.00 0.00 44 1017.7
20260506051015 53 203 4.0 10.0 0.00 0.00 0.00 45 1017.5
20260506045038 53 225 3.0 6.0 0.00 0.00 0.00 47 1017.5
20260506044017 53 203 4.0 10.0 0.00 0.00 0.00 47 1016.9
20260506043017 54 203 4.0 11.0 0.00 0.00 0.00 47 1016.9
20260506042037 54 203 4.0 9.0 0.00 0.00 0.00 47 1016.9
20260506041018 54 203 3.0 10.0 0.00 0.00 0.00 48 1016.7
20260506040017 54 203 3.0 7.0 0.00 0.00 0.00 48 1016.7
20260506035017 54 203 3.0 10.0 0.00 0.00 0.00 47 1016.4
20260506034017 54 203 4.0 10.0 0.00 0.00 0.00 47 1016.4
20260506033017 54 203 4.0 11.0 0.00 0.00 0.00 46 1016.2
20260506032017 54 203 4.0 10.0 0.00 0.00 0.00 46 1016.1
20260506031018 54 203 5.0 12.0 0.00 0.00 0.00 46 1015.4
20260506030037 54 225 5.0 14.0 0.00 0.00 0.00 47 1015.1
20260506025017 55 248 6.0 15.0 0.00 0.00 0.00 46 1015.0
20260506024017 55 225 7.0 16.0 0.00 0.00 0.00 46 1014.9
20260506023017 55 203 6.0 12.0 0.00 0.00 0.00 46 1014.9
20260506022017 55 225 6.0 13.0 0.00 0.00 0.00 46 1014.7
20260506021017 55 203 6.0 17.0 0.00 0.00 0.00 47 1014.6
20260506020017 55 203 7.0 17.0 0.00 0.00 0.00 47 1014.3
20260506015017 55 203 6.0 15.0 0.00 0.00 0.00 48 1014.3
20260506014017 56 203 6.0 13.0 0.00 0.00 0.00 48 1014.5
20260506013017 56 203 7.0 15.0 0.00 0.00 0.00 48 1014.2
20260506012017 56 203 5.0 12.0 0.00 0.00 0.00 48 1014.3
20260506011037 56 203 7.0 15.0 0.00 0.00 0.00 48 1014.1
20260506010017 57 203 10.0 22.0 0.00 0.00 0.00 47 1014.0
20260506005037 57 203 7.0 18.0 0.00 0.00 0.00 47 1013.9
20260506004037 57 225 9.0 20.0 0.00 0.00 0.00 47 1014.3
20260506003017 57 225 9.0 22.0 0.00 0.00 0.00 47 1014.1
20260506002017 57 203 9.0 19.0 0.00 0.00 0.00 47 1014.1
20260506001017 57 203 11.0 26.0 0.00 0.00 0.00 48 1014.2
20260506000017 58 203 10.0 22.0 0.00 0.00 0.00 46 1013.7
20260505235017 58 225 8.0 18.0 0.00 0.00 0.00 47 1014.1
20260505234017 58 225 9.0 18.0 0.00 0.00 0.00 46 1014.1
20260505233017 59 203 9.0 22.0 0.00 0.00 0.00 46 1014.5
20260505232017 59 203 11.0 27.0 0.00 0.00 0.00 45 1014.3
20260505231017 59 225 11.0 23.0 0.00 0.00 0.00 45 1014.3
20260505230021 59 225 11.0 24.0 0.00 0.00 0.00 45 1014.3
20260505225016 59 203 14.0 25.0 0.00 0.00 0.00 45 1014.5
20260505224016 61 225 12.0 25.0 0.00 0.00 0.00 43 1015.0
20260505223037 61 203 10.0 21.0 0.00 0.00 0.00 44 1015.2
20260505222017 61 225 13.0 24.0 0.00 0.00 0.00 44 1014.9
20260505221016 59 203 14.0 23.0 0.00 0.00 0.00 45 1014.7
20260505220037 59 203 13.0 25.0 0.00 0.00 0.00 46 1014.8
20260505215016 59 225 13.0 29.0 0.00 0.00 0.00 46 1015.1
20260505214016 59 203 12.0 25.0 0.00 0.00 0.00 47 1015.1
20260505213016 60 203 12.0 26.0 0.00 0.00 0.00 45 1015.1
20260505212016 58 225 12.0 23.0 0.00 0.00 0.00 46 1014.9
20260505211016 57 225 11.0 21.0 0.00 0.00 0.00 47 1015.2
20260505210016 57 225 10.0 21.0 0.00 0.00 0.00 46 1015.2
20260505205016 55 225 9.0 20.0 0.00 0.00 0.00 45 1014.8
20260505204016 52 225 11.0 25.0 0.00 0.00 0.00 40 1014.2
20260505203016 51 203 14.0 29.0 0.00 0.00 0.00 46 1013.9
20260505202037 56 225 11.0 28.0 0.00 0.00 0.00 53 1015.9
20260505201016 59 225 8.0 18.0 0.00 0.00 0.00 52 1016.5
20260505200016 57 225 12.0 26.0 0.00 0.00 0.00 52 1015.7
20260505195037 57 203 9.0 21.0 0.00 0.00 0.00 54 1016.1
20260505194016 57 225 9.0 24.0 0.00 0.00 0.00 55 1016.2
20260505193016 58 225 12.0 25.0 0.00 0.00 0.00 54 1016.5
20260505192016 60 225 12.0 31.0 0.00 0.00 0.00 47 1016.7
20260505191016 60 225 13.0 27.0 0.00 0.00 0.00 46 1016.1
20260505190016 60 203 13.0 25.0 0.00 0.00 0.00 45 1016.1
20260505185016 61 203 13.0 26.0 0.00 0.00 0.00 45 1015.8
20260505184016 62 225 11.0 28.0 0.00 0.00 0.00 44 1016.3
20260505183036 62 203 14.0 26.0 0.00 0.00 0.00 44 1016.1
20260505182016 62 203 14.0 31.0 0.00 0.00 0.00 43 1016.2
20260505181016 62 225 14.0 29.0 0.00 0.00 0.00 43 1016.8
20260505180016 62 225 13.0 25.0 0.00 0.00 0.00 43 1016.7
20260505175016 62 203 14.0 26.0 0.00 0.00 0.00 43 1016.7
20260505174017 62 225 13.0 24.0 0.00 0.00 0.00 43 1016.6
20260505173036 62 225 12.0 24.0 0.00 0.00 0.00 41 1016.5
20260505172016 62 248 8.0 21.0 0.00 0.00 0.00 38 1016.4
20260505171016 60 225 10.0 21.0 0.00 0.00 0.00 37 1017.1
20260505170056 61 248 11.0 26.0 0.00 0.00 0.00 32 1016.8
20260505165016 63 225 6.0 15.0 0.00 0.00 0.00 30 1016.9
20260505164036 61 248 11.0 22.0 0.00 0.00 0.00 31 1017.1
20260505163015 60 225 11.0 27.0 0.00 0.00 0.00 33 1016.4
20260505162016 59 270 11.0 23.0 0.00 0.00 0.00 33 1016.7
20260505161015 59 248 13.0 25.0 0.00 0.00 0.00 35 1016.7
20260505153018 58 225 12.0 24.0 0.00 0.00 0.00 38 1016.1
20260505152037 58 225 10.0 22.0 0.00 0.00 0.00 42 1016.1
20260505151017 58 248 8.0 16.0 0.00 0.00 0.00 46 1016.2
20260505125017 54 270 8.0 18.0 0.00 0.00 0.00 48 1014.8
20260505124037 54 248 9.0 20.0 0.00 0.00 0.00 48 1014.5
20260505123017 54 248 8.0 24.0 0.00 0.00 0.00 47 1014.3
20260505122017 54 225 7.0 18.0 0.00 0.00 0.00 47 1014.5
20260505121017 55 248 13.0 29.0 0.00 0.00 0.00 46 1015.0
20260505120017 55 225 10.0 22.0 0.00 0.00 0.00 46 1015.1
20260505115017 54 248 8.0 19.0 0.00 0.00 0.00 46 1015.2
20260505114057 55 248 9.0 18.0 0.00 0.00 0.00 46 1015.1
20260505113017 55 248 10.0 26.0 0.00 0.00 0.00 46 1015.1
20260505112057 55 248 10.0 28.0 0.00 0.00 0.00 45 1015.3
20260505111017 55 248 9.0 24.0 0.00 0.00 0.00 45 1015.7
20260505102037 56 225 8.0 18.0 0.00 0.00 0.00 44 1015.6
20260505101017 56 225 9.0 21.0 0.00 0.00 0.00 43 1015.2
20260505100016 56 248 7.0 20.0 0.00 0.00 0.00 42 1015.3
20260505095057 57 225 8.0 21.0 0.00 0.00 0.00 41 1015.4
20260505094016 57 225 9.0 24.0 0.00 0.00 0.00 41 1015.9
20260505093037 57 225 9.0 27.0 0.00 0.00 0.00 40 1016.0
20260505092017 57 225 10.0 22.0 0.00 0.00 0.00 39 1016.0
20260505091017 57 225 8.0 25.0 0.00 0.00 0.00 39 1016.6
20260505090016 57 248 9.0 22.0 0.00 0.00 0.00 38 1016.9
20260505085036 58 248 10.0 24.0 0.00 0.00 0.00 38 1017.0
20260505084016 58 248 11.0 27.0 0.00 0.00 0.00 37 1017.6
20260505083016 58 248 9.0 19.0 0.00 0.00 0.00 37 1018.0
20260505082037 58 248 7.0 18.0 0.00 0.00 0.00 37 1017.9
20260505081016 58 248 8.0 18.0 0.00 0.00 0.00 37 1018.2
20260505080016 58 248 9.0 19.0 0.00 0.00 0.00 36 1018.2
20260505075016 58 248 8.0 22.0 0.00 0.00 0.00 37 1018.3
20260505074016 58 270 8.0 19.0 0.00 0.00 0.00 36 1018.6
20260505073016 58 248 9.0 22.0 0.00 0.00 0.00 36 1018.6
20260505072016 58 270 8.0 19.0 0.00 0.00 0.00 36 1018.6
20260505071016 58 270 6.0 14.0 0.00 0.00 0.00 37 1018.0
20260505070016 58 270 7.0 16.0 0.00 0.00 0.00 36 1018.2